Regional Weather Roundup
Issued by NWS Green Bay, WI

Home | Current Version | Previous Version | Graphics & Text | Print | Product List | Glossary Off
Versions: 1 2 3 4 5 6 7 8 9 10 11 12 13 14 15 16 17 18 19 20 21 22 23 24 25 26 27 28 29 30 31 32 33 34 35 36 37 38 39 40 41 42 43 44 45 46 47 48 49 50

000
ASUS43 KGRB 232310
RWRGRB

NORTH-CENTRAL AND NORTHEAST WISCONSIN REGIONAL WEATHER ROUNDUP
NATIONAL WEATHER SERVICE GREEN BAY WI
600 PM CDT THU OCT 23 2014

WIZ005-009-010>012-018-019-240000-
NORTH CENTRAL WISCONSIN

CITY           SKY/WX    TMP DP  RH WIND       PRES   REMARKS
IRONWOOD       CLOUDY    48  46  93 SW6       29.96R
MANITOWISH WTR CLOUDY    45  45 100 SW5       29.99S FOG
ARBOR VITAE    FOG       45  44  96 SW5       30.00R VSB 1
EAGLE RIVER    CLOUDY    44  44 100 CALM      29.99F FOG
LAND O LAKES   CLOUDY    45  44  98 SW3       30.00S FOG
RHINELANDER    CLOUDY    44  44 100 S5        30.01S FOG
PHILLIPS       FOG       46  46 100 SW6       30.00R VSB 1
ANTIGO         FOG       43  43 100 S6        30.02S VSB 1/4
TOMAHAWK       CLOUDY    45  43  95 CALM      30.01S FOG
MERRILL        CLOUDY    46  46 100 CALM      30.01S FOG
$$

WIZ013-073-240000-
NORTHEAST WISCONSIN

CITY           SKY/WX    TMP DP  RH WIND       PRES   REMARKS
IRON MOUNTAIN  LGT RAIN  45  43  93 S8        30.01S
MARINETTE      CLOUDY    48  45  87 SW3       30.04R
OCONTO         CLOUDY    49  47  94 CALM      30.04F
$$

WIZ017-030-035>037-045-240000-
CENTRAL WISCONSIN

CITY           SKY/WX    TMP DP  RH WIND       PRES   REMARKS
MEDFORD        FOG       46  46 100 S3        30.00F VSB 1/4
WAUSAU         CLOUDY    46  45  96 S5        30.01S FOG
MOSINEE        FOG       45  45 100 VRB6      30.03S VSB 1/4
MARSHFIELD     FOG       47  46  97 S5        30.01S VSB 1/2
WISC RAPIDS    CLOUDY    47  46  97 S5        30.03F FOG
STEVENS POINT  CLOUDY    45  44  99 S5        30.03S FOG
WAUPACA        LGT RAIN  49  48  96 CALM      30.04F
SHAWANO        RAIN      49  47  93 CALM      30.05S
CLINTONVILLE   CLOUDY    46  45  93 CALM      30.04F FOG
$$

WIZ038-039-048-051-240000-
FOX VALLEY

CITY           SKY/WX    TMP DP  RH WIND       PRES   REMARKS
NWS GREEN BAY  CLOUDY    49  48  97 CALM      30.05S FOG
APPLETON       CLOUDY    48  46  93 S9        30.04F FOG
OSHKOSH        CLOUDY    49  48  97 CALM      30.04S FOG
FOND DU LAC    CLOUDY    50  47  89 CALM      30.04F
$$

WIZ022-050-052-240000-
EAST CENTRAL WISCONSIN

CITY           SKY/WX    TMP DP  RH WIND       PRES   REMARKS
STURGEON BAY   CLOUDY    48  45  87 S7        30.06S
MANITOWOC      LGT RAIN  50  48  93 S10       30.06F FOG
SHEBOYGAN      LGT RAIN  49  47  93 S5        30.06F FOG
$$

LMZ563-521-522-541>543-240000-
LAKESHORE

STATION/POSITION TIME  TEMP    WIND        PRES    VSBY  WAVE
                       AIR SEA DIR/SP/G                  HT/PER
                 (UTC) (F)     (DEG/KT/KT) (MB)    (MI)  (FT/S)
SHEBOYGAN LKSHOR 2300   50 51  180/  8/  9 1018.4F
KEWAUNEE LKSHORE 2300   51     200/  9/ 13 1016.9F
NORTHPORT PIER   2300   51     160/  4/  8 1017.6S
N MID LAKE BUOY  2300   51 51  190/ 17/ 21 1017.7F         3/ 5
SISTER BAY LKSHO 2200          180/ 11/ 13   N/A
CHAMBERS ISLAND  2300   51     160/  5/ 11 1017.6S
MENOMINEE LKSHOR 2300   50     190/  5/  6 1018.0R
$$



USA.gov is the U.S. government's official web portal to all federal, state and local government web resources and services.